Location: Fours
(44.3167°N, 6.7000°E)
Time: 05:28:10
(UTC+00:00)

CZ-4 R/B - Pass Details

Date: 30 November 2020
Orbit: 532 x 598 km, 97.7° (Epoch: 24 January)

Event Time Altitude Azimuth Distance (km) Brightness Sun altitude
Rises 17:33:56 0° 148° (SSE) 2,709 4.7 -17.1°
Enters shadow 17:34:31 - 146° (SE) 2,468 4.4 -17.2°
Exits shadow 17:40:38 35° 41° (NE) 918 2.0 -18.2°
Drops below altitude 10° 17:43:38 10° 2° (N) 1,882 3.9 -18.8°
Sets 17:45:53 0° 355° (N) 2,796 4.9 -19.2°
